{"data":{"norad_id":41852,"epoch":"2026-09-19T21:42:08.718912Z","epoch_age_seconds":65783,"freshness":"FRESH","line1":"1 41852U 16067E   26262.90426758  .00004691  00000+0  18822-3 0  9992","line2":"2 41852  98.0513 140.2881 0003930 143.7037 216.4467 15.25546241540501","mean_motion":15.25546241,"eccentricity":0.000393,"inclination_deg":98.0513,"raan_deg":140.2881,"arg_perigee_deg":143.7037,"mean_anomaly_deg":216.4467,"bstar":0.00018822,"rev_number":54050,"period_min":94.392419010261,"perigee_km":486.44682448137,"apogee_km":491.84450865729,"semimajor_km":6867.2826665693,"source":"CELESTRAK","updated_at":"2026-09-20T09:00:48.031892Z"}}